Vorticity
7 7 7 8 6 5 8 9 9 7 6 7 8 8 8 8 7 7 7 6 7 7 7 7 7 5 6 6 1 2 3 4 5 7 7 7 8 8
8 9 8 8 8 9 9 7 6 7 8 9 9 8 8 8 8 7 7 7 6 6 7 8 8 10 11 6 3 -1 -1 -0 2 2 3 5 9 11
15 14 12 13 11 10 9 10 12 14 14 13 11 9 8 7 6 6 6 6 5 4 5 7 7 4 6 4 6 6 7 8 8 9 10 9 7 2
12 14 12 12 12 12 13 13 13 12 11 11 11 11 10 10 10 10 9 7 6 6 7 7 6 5 4 4 5 4 -2 5 6 3 2 0 -0 2
4 5 8 9 6 6 7 7 7 7 8 7 6 5 5 6 7 8 8 9 10 11 12 12 12 13 13 13 12 12 13 14 15 12 5 4 4 5
7 6 8 10 10 8 7 6 6 6 7 8 9 9 10 10 9 9 8 9 8 9 8 8 8 8 8 8 9 8 8 9 9 8 8 8 8 8
18 13 13 14 13 11 9 9 7 3 2 2 2 2 3 3 3 4 4 4 5 6 6 6 8 9 7 6 6 8 6 5 6 5 8 11 10 11
10 11 12 12 12 13 13 13 12 12 12 14 13 11 10 10 12 11 11 11 13 16 15 15 13 12 11 13 15 13 9 7 2 5 7 9 8 5
4 7 8 8 10 11 12 11 11 12 12 12 14 15 15 12 12 14 13 14 14 11 10 10 15 14 17 18 15 13 13 12 13 16 14 11 10 12
4 5 9 9 8 11 10 11 12 13 14 14 14 12 11 13 13 12 11 9 17 16 11 7 11 15 15 11 13 16 16 14 14 13 14 13 14 16
16 17 15 15 13 11 13 14 13 14 13 13 11 11 13 14 12 12 11 8 8 9 9 10 9 6 5 1 0 7 11 12 13 13 9 8 12 12
21 19 15 16 20 21 20 19 18 19 19 18 16 17 15 14 15 12 11 10 12 12 12 14 14 12 13 13 10 11 16 15 6 1 -1 3 10 11
22 20 18 18 17 16 15 15 12 11 9 11 10 11 12 12 13 15 18 20 23 25 24 25 27 24 20 13 9 15 15 12 11 11 15 17 12 8
7 10 9 8 8 7 7 7 9 10 10 12 14 15 14 12 11 11 11 11 11 11 12 13 14 15 17 20 22 22 25 27 24 21 21 19 17 16
3 7 11 13 15 14 12 11 11 11 10 10 9 9 8 9 10 10 9 10 10 10 9 9 10 10 10 9 9 9 11 12 14 15 17 19 21 25
9 8 8 7 7 6 7 7 8 9 9 9 9 9 9 9 8 8 9 8 8 7 7 8 8 8 7 7 8 8 8 9 8 11 11 11 11 11
11 12 11 11 12 12 11 11 10 11 11 10 10 11 11 11 11 11 12 11 11 11 11 11 11 9 10 10 10 10 10 9 11 9 11 11 11 12
11 10 13 13 14 14 15 14 13 12 11 10 10 10 10 9 9 9 9 8 9 9 10 10 10 10 11 11 10 10 11 12 10 11 11 10 10 10
9 11 11 11 11 10 8 8 8 8 9 10 10 9 8 8 8 9 9 10 10 10 9 8 8 9 9 8 8 8 8 8 9 7 7 7 6 4
10 11 11 11 10 10 9 8 8 10 9 9 12 13 12 11 10 10 9 8 7 6 6 7 9 11 12 10 8 9 11 8 9 9 8 9 8 8
9 12 12 11 10 10 9 8 9 10 12 10 5 4 7 13 19 23 25 27 27 27 25 25 24 22 20 18 15 13 13 16 14 14 12 12 13 12
12 13 11 10 8 8 8 8 11 11 7 7 12 22 30 31 29 27 28 30 31 31 30 30 28 27 26 27 31 30 24 24 27 26 28 30 24 23
13 10 9 9 8 8 10 13 8 7 13 24 33 31 25 22 24 28 31 30 31 32 31 30 28 26 25 24 26 26 28 24 22 25 27 25 26 28
Height
5710 5713 5715 5717 5719 5721 5723 5725 5727 5729 5730 5732 5734 5736 5738 5739 5741 5743 5744 5746 5747 5749 5751 5753 5755 5757 5758 5760 5762 5765 5767 5768 5769 5771 5772 5774 5776 5777
5695 5697 5700 5702 5704 5706 5708 5709 5711 5713 5716 5717 5719 5721 5722 5724 5726 5727 5729 5731 5732 5734 5736 5738 5739 5741 5743 5745 5747 5749 5751 5753 5754 5756 5758 5759 5760 5762
5679 5682 5685 5687 5689 5691 5692 5694 5696 5698 5699 5701 5702 5704 5705 5707 5709 5710 5712 5713 5716 5718 5720 5721 5723 5725 5727 5728 5730 5732 5734 5735 5737 5739 5741 5743 5744 5746
5664 5667 5669 5671 5673 5675 5677 5679 5680 5681 5683 5684 5685 5687 5689 5690 5691 5693 5694 5696 5698 5700 5702 5704 5705 5707 5709 5710 5712 5714 5717 5716 5718 5721 5723 5724 5726 5728
5649 5651 5653 5655 5657 5658 5660 5661 5663 5664 5665 5667 5668 5670 5671 5672 5674 5675 5676 5677 5679 5681 5683 5685 5686 5688 5689 5691 5692 5694 5696 5697 5698 5699 5702 5704 5706 5708
5635 5636 5638 5639 5641 5642 5643 5645 5646 5647 5649 5650 5651 5652 5653 5654 5655 5656 5657 5658 5660 5662 5663 5665 5666 5667 5668 5670 5672 5672 5674 5676 5678 5680 5681 5683 5685 5687
5619 5620 5622 5623 5624 5625 5627 5629 5629 5630 5631 5632 5632 5633 5634 5634 5635 5636 5637 5638 5639 5640 5642 5643 5644 5644 5647 5648 5649 5650 5652 5654 5655 5657 5659 5661 5663 5665
5604 5605 5606 5607 5608 5608 5609 5610 5610 5611 5611 5611 5611 5612 5612 5613 5613 5614 5615 5616 5617 5618 5619 5620 5621 5621 5623 5624 5625 5626 5628 5630 5632 5634 5635 5638 5639 5641
5589 5589 5589 5589 5590 5591 5591 5591 5591 5591 5590 5591 5591 5590 5591 5591 5593 5591 5592 5593 5593 5594 5596 5598 5598 5598 5599 5601 5601 5602 5603 5605 5607 5609 5610 5612 5614 5616
5571 5572 5572 5572 5572 5572 5572 5572 5572 5571 5571 5571 5571 5569 5570 5570 5570 5570 5571 5571 5573 5573 5575 5578 5574 5576 5577 5578 5578 5579 5580 5581 5583 5584 5586 5588 5589 5592
5554 5554 5554 5554 5554 5555 5554 5553 5553 5551 5551 5551 5552 5552 5551 5550 5550 5550 5550 5550 5552 5552 5552 5553 5553 5554 5554 5556 5555 5557 5558 5558 5560 5561 5563 5564 5566 5568
5537 5536 5536 5536 5536 5536 5537 5537 5537 5534 5533 5533 5533 5533 5533 5532 5531 5529 5528 5529 5529 5531 5530 5529 5529 5530 5532 5534 5532 5532 5532 5533 5536 5538 5539 5541 5542 5545
5523 5523 5523 5523 5524 5523 5522 5522 5521 5520 5517 5516 5516 5515 5514 5514 5513 5511 5509 5509 5510 5510 5507 5505 5508 5507 5507 5510 5511 5509 5507 5508 5509 5511 5512 5514 5517 5519
5513 5513 5512 5512 5511 5510 5509 5507 5505 5504 5504 5502 5500 5499 5498 5496 5495 5494 5493 5492 5491 5491 5488 5486 5488 5488 5486 5489 5490 5489 5486 5486 5486 5487 5487 5490 5491 5493
5502 5501 5500 5499 5497 5495 5493 5492 5490 5489 5487 5486 5485 5484 5481 5478 5477 5476 5475 5474 5473 5472 5471 5469 5469 5468 5467 5469 5469 5469 5468 5465 5465 5465 5466 5467 5468 5468
5490 5489 5487 5485 5483 5480 5478 5476 5475 5473 5471 5469 5468 5466 5464 5463 5461 5457 5456 5454 5453 5453 5451 5450 5448 5447 5448 5448 5448 5450 5446 5448 5445 5443 5446 5448 5447 5447
5477 5475 5473 5471 5469 5466 5464 5461 5458 5456 5454 5451 5449 5447 5445 5443 5441 5438 5436 5433 5431 5431 5430 5427 5425 5424 5426 5427 5428 5427 5425 5426 5424 5425 5424 5427 5428 5426
5463 5460 5458 5456 5454 5451 5448 5445 5442 5439 5436 5433 5430 5428 5425 5422 5419 5416 5413 5411 5409 5407 5406 5405 5400 5402 5402 5405 5405 5404 5403 5403 5403 5402 5402 5403 5408 5403
5450 5447 5444 5441 5439 5436 5433 5429 5426 5422 5418 5414 5411 5408 5404 5400 5397 5395 5391 5388 5386 5384 5383 5380 5378 5377 5378 5380 5380 5381 5383 5380 5379 5380 5380 5381 5384 5386
5436 5433 5430 5427 5423 5420 5417 5413 5409 5405 5401 5396 5391 5386 5381 5376 5373 5370 5366 5363 5360 5358 5356 5354 5353 5352 5350 5353 5357 5363 5356 5357 5353 5356 5357 5356 5359 5360
5422 5419 5415 5411 5408 5404 5400 5396 5391 5386 5380 5374 5369 5363 5357 5351 5346 5341 5337 5334 5331 5328 5326 5327 5326 5324 5323 5325 5334 5340 5334 5330 5331 5331 5334 5334 5336 5337
5407 5403 5399 5395 5391 5387 5382 5377 5371 5365 5358 5352 5345 5338 5331 5324 5320 5315 5310 5307 5304 5302 5301 5302 5301 5300 5300 5301 5308 5313 5314 5311 5309 5309 5311 5310 5312 5317
5392 5388 5384 5379 5374 5369 5364 5358 5351 5344 5336 5328 5321 5315 5309 5305 5300 5295 5291 5287 5285 5283 5282 5283 5282 5282 5284 5285 5288 5293 5295 5295 5293 5292 5294 5292 5293 5294